Location: Serpentine
(32.3617°S, 115.9768°E)
Time: 10:55:38
(UTC+08:00)

X-37B - Pass Details

Date: 13 December 2021
Orbit: 334 x 337 km, 45.0° (Epoch: 11 January)

Event Time Altitude Azimuth Distance (km) Brightness Sun altitude
Exits shadow 03:31:57 32° 245° (WSW) 613 1.3 -16.5°
Maximum altitude 03:32:37 38° 210° (SSW) 541 1.4 -16.4°
Drops below altitude 10° 03:35:23 10° 139° (SE) 1,297 4.6 -16.0°
Sets 03:37:29 0° 130° (SE) 2,142 6.3 -15.6°
